Date,TemperatureHighF,TemperatureAvgF,TemperatureLowF,DewpointHighF,DewpointAvgF,DewpointLowF,HumidityHigh,HumidityAvg,HumidityLow,PressureMaxIn,PressureMinIn,WindSpeedMaxMPH,WindSpeedAvgMPH,GustSpeedMaxMPH,PrecipitationSumIn
2013-1-1,45.0,38.3,30.4,38.3,31.5,24.2,82,76,70,29.45,29.34,8,1,8,0.00
2013-1-2,40.7,34.6,28.1,31.5,25.4,17.3,88,70,46,29.63,29.41,13,3,13,0.00
2013-1-3,40.7,29.6,21.6,30.2,21.5,15.9,85,72,57,29.65,29.55,9,2,9,0.00
2013-1-4,42.3,31.1,20.2,30.2,21.6,15.8,86,69,49,29.65,29.55,13,3,13,0.00
2013-1-5,45.5,33.3,19.8,31.9,24.5,15.7,87,71,53,29.81,29.59,8,2,8,0.00
2013-1-6,48.8,39.1,26.3,36.8,30.3,21.8,87,71,56,29.61,29.48,9,2,9,0.00
2013-1-7,41.4,36.0,24.1,31.4,27.1,19.8,85,70,61,29.89,29.59,13,2,13,0.00
2013-1-8,53.3,35.3,22.5,38.6,26.7,18.4,90,73,43,29.85,29.74,12,2,12,0.00
2013-1-9,59.4,42.1,26.3,48.0,35.3,21.3,87,78,53,29.86,29.69,11,2,11,0.00
2013-1-10,55.8,43.4,29.9,38.9,31.8,24.1,83,65,46,30.02,29.85,10,2,10,0.00
2013-1-11,51.5,44.3,36.2,42.7,36.5,30.7,88,74,63,29.87,29.53,9,3,9,0.02
2013-1-12,68.2,50.7,39.6,59.8,46.1,36.9,92,85,68,29.60,29.52,7,1,7,0.00
2013-1-13,67.9,54.7,42.7,59.9,49.7,40.0,95,84,67,29.54,29.42,10,2,10,0.00
2013-1-14,59.4,52.4,38.9,56.0,46.8,36.7,93,82,69,29.74,29.41,23,6,23,0.25
2013-1-15,39.2,36.8,35.3,37.6,35.1,33.7,96,94,91,29.77,29.54,14,4,14,0.82
2013-1-16,45.7,39.0,34.2,44.4,37.7,32.9,96,95,93,29.56,29.26,11,2,11,0.19
2013-1-17,44.6,40.6,34.9,43.1,35.9,30.3,96,84,63,29.56,29.40,13,3,13,0.00
2013-1-18,38.5,33.3,27.4,31.4,22.1,16.1,86,65,45,29.88,29.54,22,4,22,0.00
2013-1-19,51.5,38.6,26.1,33.5,26.6,20.8,84,64,40,29.83,29.44,18,5,18,0.02
2013-1-20,56.0,43.4,28.8,36.6,24.4,6.9,73,50,23,29.51,29.32,22,6,22,0.00
2013-1-21,47.2,34.5,24.1,27.2,18.9,10.8,76,55,32,29.51,29.23,26,6,26,0.01
2013-1-22,29.0,22.4,16.0,13.6,3.1,-1.7,54,43,31,29.68,29.37,25,6,25,0.00
2013-1-23,31.0,22.1,8.8,14.7,6.0,-0.3,78,50,37,29.72,29.50,15,3,15,0.00
2013-1-24,26.3,20.2,14.2,16.5,9.9,2.8,87,66,40,29.94,29.45,29,4,29,0.71
2013-1-25,26.3,21.4,13.0,18.3,12.3,3.7,73,68,53,29.93,29.44,8,2,8,0.00
2013-1-26,37.6,28.9,21.8,28.0,20.9,15.8,82,72,60,29.84,29.45,17,3,17,0.00
2013-1-27,43.7,31.2,18.5,32.3,22.3,12.9,82,70,53,29.99,29.83,6,1,6,0.00
2013-1-28,51.8,41.5,31.3,44.9,36.2,24.3,92,82,75,29.86,29.53,12,4,12,0.09
2013-1-29,69.5,54.1,37.8,58.1,47.3,35.1,92,79,59,29.58,29.41,11,3,11,0.00
2013-1-30,67.3,57.8,45.0,60.5,53.7,41.4,95,86,77,29.41,28.73,20,4,20,1.96
2013-1-31,55.6,39.2,27.9,54.5,30.9,20.0,96,73,54,29.33,28.71,29,10,29,0.16
2013-2-1,31.7,24.9,14.8,27.8,13.4,4.0,86,62,46,29.78,29.21,25,5,25,0.00
2013-2-2,34.4,24.9,12.8,24.3,16.0,6.0,84,70,42,29.77,29.41,13,3,13,0.00
2013-2-3,40.0,32.4,26.3,36.4,24.2,14.9,89,72,54,29.41,29.22,22,4,22,0.00
2013-2-4,38.2,30.9,19.3,28.6,19.3,11.7,78,62,48,29.51,29.31,13,4,14,0.00
2013-2-5,52.4,39.6,30.8,37.5,30.8,25.6,84,72,54,29.35,29.26,17,3,17,0.01
2013-2-6,48.1,37.9,27.9,32.9,28.4,21.5,86,70,48,29.75,29.35,15,3,15,0.00
2013-2-7,44.3,34.6,24.3,32.5,27.3,20.3,88,75,63,29.81,29.56,8,2,8,0.00
2013-2-8,41.9,36.4,32.4,38.3,31.4,23.8,93,83,65,29.57,29.22,23,4,23,0.09
2013-2-9,42.8,33.0,21.2,24.5,18.2,13.6,77,56,32,29.80,29.44,32,5,32,0.00
2013-2-10,45.0,32.7,17.1,29.3,21.4,12.3,85,65,45,29.87,29.61,8,3,8,0.01
2013-2-11,61.6,49.9,38.2,50.9,38.3,24.9,84,66,36,29.61,29.20,26,6,26,0.00
2013-2-12,58.3,47.8,37.3,32.0,26.6,20.5,64,45,25,29.41,29.27,20,4,20,0.00
2013-2-13,45.2,36.3,29.7,34.0,29.1,23.1,94,76,55,29.37,29.08,12,3,13,0.07
2013-2-14,47.7,36.4,25.0,41.3,29.9,22.2,93,78,54,29.45,29.24,12,2,12,0.02
2013-2-15,57.4,39.1,24.5,43.0,31.3,20.6,91,76,46,29.48,29.32,22,4,22,0.12
2013-2-16,37.1,32.6,25.9,31.6,25.7,15.8,93,77,57,29.44,29.28,24,6,24,0.01
2013-2-17,31.9,25.3,19.4,18.8,11.2,6.2,79,56,39,29.63,29.31,26,6,26,0.00
2013-2-18,44.3,30.6,13.0,23.0,17.1,5.9,81,59,39,29.78,29.54,7,2,7,0.00
2013-2-19,49.3,38.3,26.3,41.1,29.5,18.8,86,71,48,29.54,29.15,26,6,26,0.08
2013-2-20,42.5,33.5,24.3,22.0,17.5,13.2,67,52,39,29.57,29.31,25,6,25,0.00
2013-2-21,41.0,30.0,20.5,20.8,16.7,11.9,75,58,41,29.72,29.55,24,4,24,0.00
2013-2-22,39.2,33.3,28.3,29.8,24.5,17.7,79,70,62,29.76,29.56,9,3,9,0.01
2013-2-23,52.4,40.4,33.8,44.2,33.6,27.2,91,77,68,29.57,29.25,8,1,8,0.00
2013-2-24,52.6,40.8,31.3,43.1,30.7,17.8,95,71,38,29.56,29.25,30,6,30,0.06
2013-2-25,44.8,32.2,20.9,27.1,20.3,14.4,80,63,45,29.65,29.55,15,2,15,0.00
2013-2-26,40.0,33.3,23.4,38.3,29.8,17.3,94,87,76,29.61,29.05,19,3,19,0.02
2013-2-27,52.4,43.0,37.3,49.9,37.5,32.1,96,82,61,29.15,29.01,17,4,17,0.00
2013-2-28,44.3,39.7,35.6,34.3,29.6,26.1,83,67,54,29.19,29.08,16,5,16,0.00
2013-3-1,38.0,36.3,33.1,29.3,26.9,23.1,73,68,62,29.34,29.19,15,4,15,0.00
2013-3-2,37.6,32.5,30.1,25.4,22.7,18.9,80,67,55,29.33,29.25,22,4,22,0.06
2013-3-3,42.5,32.5,27.4,26.6,20.0,14.9,74,60,46,29.40,29.25,31,5,31,0.13
2013-3-4,43.7,32.4,23.0,20.8,15.6,12.2,68,51,31,29.48,29.39,23,4,23,0.04
2013-3-5,54.7,39.2,25.6,32.0,26.2,15.7,92,61,41,29.50,29.16,9,2,9,0.01
2013-3-6,37.6,34.0,31.3,32.7,31.0,29.8,95,89,76,29.47,29.06,33,8,33,2.63
2013-3-7,41.4,37.6,34.9,30.4,28.5,26.1,77,69,59,29.63,29.47,26,5,29,0.10
2013-3-8,40.0,36.0,29.2,29.4,26.6,23.1,79,69,62,29.75,29.60,31,6,31,12.79
2013-3-9,49.0,34.9,21.8,37.0,27.3,17.7,87,74,60,29.81,29.69,6,1,6,0.00
2013-3-10,59.2,42.3,25.2,41.6,31.1,21.3,88,67,48,29.73,29.61,8,2,8,0.00
2013-3-11,60.8,49.8,38.5,48.3,36.4,26.7,80,61,40,29.63,29.30,9,3,9,0.00
2013-3-12,58.0,50.7,34.2,50.9,43.8,27.5,94,78,53,29.43,29.17,19,5,19,0.86
2013-3-13,49.0,37.6,27.7,39.2,26.6,18.8,88,66,41,29.52,29.34,25,6,25,0.00
2013-3-14,44.5,36.0,27.4,24.9,20.0,15.4,66,53,36,29.59,29.48,24,5,24,0.00
2013-3-15,57.1,41.2,23.2,37.0,27.7,16.6,81,60,41,29.54,29.22,16,4,16,0.00
2013-3-16,59.8,45.2,34.2,54.3,40.8,28.4,92,85,76,29.32,29.06,18,3,18,1.12
2013-3-17,38.5,34.9,31.3,35.6,32.8,29.8,95,92,87,29.66,29.32,21,5,21,0.21
2013-3-18,34.9,33.1,31.3,32.9,31.5,29.8,95,94,91,29.68,29.30,12,2,12,0.28
2013-3-19,53.5,41.9,30.8,47.6,29.6,11.6,95,68,29,29.39,29.18,35,9,35,0.19
2013-3-20,50.9,41.4,31.0,27.3,19.5,13.2,67,42,28,29.44,29.19,24,8,24,0.04
2013-3-21,38.2,31.5,24.1,29.3,17.4,9.9,80,57,41,29.35,29.20,26,6,26,0.01
2013-3-22,46.8,35.4,23.9,25.5,18.8,11.2,66,52,36,29.43,29.29,18,4,18,0.00
2013-3-23,54.4,37.4,21.4,31.9,22.7,15.4,81,58,32,29.47,29.32,15,2,15,0.00
2013-3-24,40.9,33.8,29.2,30.2,25.8,20.3,93,73,53,29.40,29.04,14,2,14,0.00
2013-3-25,41.8,35.2,30.4,39.2,33.0,28.2,93,91,88,29.15,28.95,5,1,5,0.55
2013-3-26,42.5,36.0,27.9,37.3,30.2,25.9,94,80,59,29.47,29.15,20,3,20,0.23
2013-3-27,48.1,38.6,29.3,36.6,28.4,23.9,84,68,50,29.58,29.46,23,5,23,0.00
2013-3-28,48.6,39.7,33.3,33.1,28.1,24.6,74,63,52,29.67,29.55,24,4,24,0.00
2013-3-29,54.7,42.3,29.7,40.3,29.3,23.1,87,62,37,29.70,29.57,22,2,22,0.00
2013-3-30,60.5,43.3,26.3,41.6,30.1,21.3,85,62,38,29.67,29.50,12,2,12,0.00
2013-3-31,58.0,46.4,35.8,50.6,41.3,29.9,90,82,75,29.51,29.18,8,2,8,0.01
2013-4-1,62.3,46.6,33.5,49.0,36.1,22.9,92,69,48,29.43,29.22,28,6,28,0.02
2013-4-2,49.9,40.4,28.8,25.1,20.1,14.0,74,46,28,29.59,29.42,20,5,22,0.00
2013-4-3,51.5,38.3,22.0,30.3,18.9,12.9,80,49,25,29.78,29.58,25,4,25,0.09
2013-4-4,54.9,37.3,22.7,31.7,22.9,14.9,85,59,34,29.81,29.47,10,2,10,0.22
2013-4-5,62.1,47.1,35.1,50.0,34.9,29.3,93,67,32,29.48,29.28,27,3,27,0.34
2013-4-6,57.1,45.7,32.0,31.1,25.7,16.6,69,47,31,29.72,29.48,17,3,17,0.00
2013-4-7,67.9,54.3,37.1,44.2,37.5,26.2,73,54,40,29.64,29.42,18,5,18,0.26
2013-4-8,79.0,62.3,45.0,56.0,46.2,38.3,80,58,37,29.53,29.39,13,2,13,0.00
2013-4-9,83.9,67.5,50.6,61.3,51.8,44.3,82,59,40,29.56,29.42,14,2,14,0.00
2013-4-10,87.7,69.8,52.9,64.5,53.8,47.3,83,60,38,29.47,29.27,13,4,13,0.00
2013-4-11,88.2,71.2,52.9,64.4,55.5,47.4,87,60,30,29.34,29.17,14,3,14,0.00
2013-4-12,74.0,66.7,56.9,69.8,55.4,39.5,94,69,43,29.22,29.03,18,6,18,0.85
2013-4-13,68.2,57.4,41.6,48.7,38.0,27.1,80,50,31,29.41,29.22,18,5,18,0.00
2013-4-14,71.6,56.8,36.9,46.7,39.7,28.3,81,54,39,29.55,29.41,14,1,14,0.00
2013-4-15,63.5,56.7,50.9,55.3,49.4,41.9,91,77,57,29.68,29.51,10,2,10,0.16
2013-4-16,74.3,63.8,55.3,62.7,56.1,50.0,87,77,60,29.71,29.57,16,4,16,0.02
2013-4-17,80.1,67.0,56.2,67.1,59.3,53.4,93,78,53,29.66,29.55,14,2,14,0.00
2013-4-18,79.7,67.4,60.5,67.5,59.1,55.0,87,75,61,29.61,29.39,11,3,11,0.00
2013-4-19,77.0,66.1,52.7,65.3,58.8,40.9,91,78,65,29.39,29.06,18,6,18,0.27
2013-4-20,58.7,51.4,41.8,41.9,33.7,26.7,74,52,38,29.75,29.25,22,4,22,0.00
2013-4-21,54.2,44.5,34.2,34.9,29.9,26.4,80,57,40,29.97,29.75,26,4,26,0.00
2013-4-22,57.4,45.3,30.6,38.0,32.9,26.4,87,64,42,29.95,29.75,15,3,15,0.00
2013-4-23,68.2,52.4,39.4,50.0,42.2,32.9,84,70,51,29.78,29.52,13,2,13,0.00
2013-4-24,79.2,61.2,40.3,58.7,49.6,37.0,91,68,45,29.53,29.24,19,4,19,0.01
2013-4-25,63.7,53.0,42.8,45.6,35.4,28.5,71,53,30,29.75,29.47,17,4,17,0.01
2013-4-26,65.5,51.8,32.8,45.4,37.2,27.7,87,60,39,29.87,29.74,12,2,12,0.00
2013-4-27,74.9,57.4,40.7,50.4,42.8,35.9,86,61,39,29.81,29.68,7,2,7,0.00
2013-4-28,58.7,54.5,50.0,54.2,47.0,41.5,89,76,64,29.68,29.54,10,2,10,0.13
2013-4-29,71.6,59.0,51.7,61.6,52.8,46.4,92,81,65,29.56,29.42,8,2,8,0.02
2013-4-30,66.8,58.4,53.5,57.1,53.2,49.2,91,83,68,29.71,29.50,13,4,13,0.00
2013-5-1,69.1,59.4,50.6,53.0,45.5,39.1,88,63,37,29.82,29.69,15,3,15,0.00
2013-5-2,69.7,55.4,38.9,53.3,43.5,35.5,90,66,44,29.82,29.71,13,2,13,0.00
2013-5-3,68.8,54.7,38.2,52.7,43.9,35.5,92,69,48,29.78,29.67,8,2,8,0.00
2013-5-4,67.9,52.5,36.5,52.8,42.7,33.0,91,71,52,29.73,29.58,12,2,12,0.00
2013-5-5,65.0,53.2,36.5,48.6,41.7,32.8,91,66,49,29.63,29.53,14,2,14,0.00
2013-5-6,59.9,53.9,49.5,55.3,50.2,43.5,95,88,69,29.58,29.42,15,3,15,0.38
2013-5-7,62.5,56.5,51.8,61.0,55.1,50.4,97,95,93,29.42,29.32,19,3,19,2.11
2013-5-8,68.9,55.3,48.1,66.4,53.8,46.7,97,95,90,29.43,29.34,11,2,11,0.46
2013-5-9,73.6,59.7,47.5,72.1,54.8,46.4,97,85,52,29.48,29.37,14,2,14,0.09
2013-5-10,82.8,66.6,48.6,68.0,56.9,46.2,93,74,45,29.49,29.31,16,2,16,0.26
2013-5-11,76.3,65.7,58.1,68.4,59.5,55.0,95,81,59,29.35,29.17,12,2,12,0.01
2013-5-12,64.3,56.4,46.4,56.0,41.9,30.8,92,60,40,29.48,29.22,25,4,25,0.00
2013-5-13,58.3,47.8,36.4,44.8,34.2,29.9,86,61,37,29.61,29.46,16,3,16,0.00
2013-5-14,71.1,54.0,32.4,48.6,40.3,27.8,88,63,39,29.64,29.42,10,2,10,0.00
2013-5-15,86.2,69.0,47.7,64.9,52.8,42.3,84,59,34,29.43,29.18,22,4,22,0.00
2013-5-16,85.7,71.9,59.8,66.2,58.2,49.2,88,64,45,29.42,29.27,10,2,10,0.00
2013-5-17,86.0,69.1,54.4,67.1,59.1,51.5,92,73,42,29.56,29.40,10,1,10,0.03
2013-5-18,74.7,66.0,61.2,68.9,61.3,58.3,92,85,74,29.63,29.54,6,2,6,0.06
2013-5-19,76.9,66.5,59.9,67.6,61.2,57.2,92,83,71,29.61,29.51,8,2,8,0.00
2013-5-20,85.3,72.9,61.4,74.9,65.2,59.0,95,78,60,29.54,29.43,8,2,8,0.01
2013-5-21,89.6,73.9,57.6,73.6,65.1,54.5,93,75,52,29.45,29.33,5,1,5,0.00
2013-5-22,94.0,76.0,61.9,73.4,65.5,59.3,93,72,43,29.40,29.28,17,2,17,0.13
2013-5-23,84.6,70.2,60.8,72.2,64.0,58.1,95,82,57,29.36,29.19,8,2,8,0.41
2013-5-24,61.0,56.0,45.2,59.1,46.8,32.1,95,72,51,29.62,29.23,29,4,29,0.18
2013-5-25,64.1,52.9,37.6,43.9,36.6,30.5,81,56,34,29.68,29.56,22,3,22,0.04
2013-5-26,70.6,56.8,39.1,51.6,39.6,34.1,89,57,27,29.68,29.57,11,2,11,0.00
2013-5-27,72.4,56.5,39.2,53.4,46.6,34.4,86,71,50,29.72,29.60,4,1,4,0.00
2013-5-28,89.1,67.9,50.4,67.8,58.4,46.6,89,74,46,29.63,29.50,16,2,22,0.00
2013-5-29,92.7,76.1,58.3,70.6,62.4,55.4,90,65,43,29.59,29.52,11,2,11,0.00
2013-5-30,92.5,77.3,59.6,71.9,62.8,55.7,89,64,42,29.66,29.57,7,1,7,0.00
2013-5-31,91.6,75.8,57.1,71.7,62.3,53.6,91,66,43,29.62,29.48,11,2,11,0.00
2013-6-1,94.5,78.3,60.1,72.6,64.7,56.8,90,65,45,29.50,29.37,11,2,11,0.08
2013-6-2,85.1,74.7,63.0,69.2,64.1,57.6,85,70,53,29.39,29.30,16,4,16,0.00
2013-6-3,87.7,73.0,64.6,74.7,63.2,55.6,91,73,50,29.43,29.29,27,2,28,0.00
2013-6-4,73.4,65.1,54.0,56.3,50.5,42.9,91,62,39,29.57,29.42,18,3,18,0.00
2013-6-5,85.3,69.8,53.6,62.1,56.3,47.3,86,64,38,29.59,29.47,8,2,8,0.00
2013-6-6,68.0,63.5,61.7,62.7,58.7,52.7,96,85,67,29.48,29.27,8,2,8,1.14
2013-6-7,68.0,64.8,61.6,66.8,63.5,60.4,97,96,94,29.27,29.09,17,3,17,0.47
2013-6-8,77.2,68.6,58.7,72.5,64.2,57.2,96,86,61,29.53,29.22,5,1,5,0.06
2013-6-9,79.9,68.6,58.3,71.1,63.9,56.2,94,85,73,29.62,29.50,13,2,13,0.01
2013-6-10,78.7,69.3,63.9,77.0,67.8,62.7,97,95,87,29.54,29.25,10,1,10,2.07
2013-6-11,82.4,71.5,61.0,76.8,65.1,58.2,97,82,61,29.35,29.27,13,3,13,0.01
2013-6-12,90.2,76.6,59.8,75.0,66.8,57.3,93,73,55,29.36,29.25,12,2,12,0.00
2013-6-13,80.6,70.6,64.1,74.2,65.0,56.2,94,83,71,29.28,28.99,23,3,23,0.09
2013-6-14,76.3,67.6,57.6,59.9,55.1,52.1,85,65,49,29.47,29.13,19,5,19,0.01
2013-6-15,82.1,60.5,52.9,65.2,54.5,49.8,90,82,53,29.55,29.46,4,1,4,0.00
2013-6-16,87.7,86.0,83.7,67.6,66.4,64.7,54,52,50,29.42,29.41,6,4,6,0.00